Martinsburg, WV

10:53 AM EST on December 05, 2016 (GMT -0500)
Eastern W Va Regional-Shepherd

Weather History for KMRB - September, 2013

Change the Weather History Date:

Tuesday, September 17, 2013

  Actual Average Record
Temperature  
Mean Temperature 56 °F 65 °F  
Max Temperature 68 °F 76 °F 96 °F (1991)
Min Temperature 44 °F 54 °F 35 °F (1984)
Degree Days  
Heating Degree Days 9 3  
Month to date heating degree days 27 25  
Since 1 July heating degree days 31 32  
Cooling Degree Days 0 3  
Month to date cooling degree days 98 72  
Year to date cooling degree days 1016 864  
Growing Degree Days 7 (Base 50)    
Moisture  
Dew Point 41 °F    
Average Humidity 59    
Maximum Humidity 83    
Minimum Humidity 34    
Precipitation  
Precipitation 0.00 in 0.13 in 3.02 in (1945)
Month to date precipitation 0.58 2.01  
Year to date precipitation 22.96 28.25  
Sea Level Pressure  
Sea Level Pressure 30.37 in    
Wind  
Wind Speed 3 mph (NNE)    
Max Wind Speed 9 mph    
Max Gust Speed 16 mph    
Visibility 10 miles    
Events      
T = Trace of Precipitation, MM = Missing Value Source: NWS Daily Summary

Daily Weather History Graph

Daily Weather History Graph

Search for Another Location

Airport or City:

Trip Planner

Search our weather history database for the weather conditions in past years. The results will help you decide how hot, cold, wet, or windy it might be!

Date:

Astronomy

Sep. 17, 2013 Rise Set
Actual Time 6:55 AM EDT 7:16 PM EDT
Civil Twilight 6:28 AM EDT 7:43 PM EDT
Nautical Twilight 5:56 AM EDT 8:15 PM EDT
Astronomical Twilight 5:24 AM EDT 8:47 PM EDT
Moon 6:02 PM EDT (9/17) 4:48 AM EDT (9/17)
Length of Visible Light 13h 15m
Length of Day
12h 21m
Waxing Gibbous, 96% of the Moon is Illuminated
Sep 17
Waxing Gibbous
Sep 19
Full
Sep 26
Last Quarter
Oct 4
New
Oct 11
First Quarter

Hourly Weather History & Observations

Time (EDT) Temp. Dew Point Humidity Pressure Visibility Wind Dir Wind Speed Gust Speed Precip Events Conditions
12:53 AM 57.9 °F 50.0 °F 75% 30.28 in 10.0 mi North 6.9 mph - N/A   Mostly Cloudy
1:53 AM 57.0 °F 50.0 °F 77% 30.30 in 10.0 mi North 5.8 mph - N/A   Scattered Clouds
2:53 AM 55.9 °F 48.9 °F 77% 30.31 in 10.0 mi North 6.9 mph - N/A   Clear
3:53 AM 54.0 °F 48.0 °F 80% 30.32 in 10.0 mi North 5.8 mph - N/A   Clear
4:53 AM 52.0 °F 46.0 °F 80% 30.35 in 10.0 mi North 10.4 mph - N/A   Clear
5:53 AM 48.9 °F 41.0 °F 74% 30.38 in 10.0 mi NNE 9.2 mph - N/A   Clear
6:53 AM 48.0 °F 39.0 °F 71% 30.40 in 10.0 mi North 9.2 mph - N/A   Clear
7:53 AM - - N/A% 30.42 in - North - - N/A   Unknown
8:55 AM - - N/A% - 10.0 mi Variable 6.9 mph - N/A   Clear
9:55 AM - - N/A% - 10.0 mi South 5.8 mph - N/A   Clear
10:53 AM 55.9 °F 39.0 °F 53% 30.45 in 10.0 mi ENE 5.8 mph - N/A   Unknown
11:53 AM 60.1 °F 39.9 °F 47% 30.45 in 10.0 mi NE 4.6 mph - N/A   Clear
12:53 PM 61.0 °F 37.9 °F 42% 30.43 in 10.0 mi Variable 3.5 mph - N/A   Clear
1:32 PM 62.6 °F 37.4 °F 39% 30.41 in 1.5 mi NE 4.6 mph - N/A   Haze
1:42 PM 62.6 °F 37.4 °F 39% 30.41 in 5.0 mi Calm Calm - N/A   Haze
1:53 PM 64.0 °F 37.9 °F 38% 30.40 in 10.0 mi North 3.5 mph - N/A   Clear
2:53 PM 66.0 °F 37.9 °F 36% 30.38 in 10.0 mi Variable 5.8 mph - N/A   Clear
3:53 PM 66.0 °F 37.0 °F 34% 30.35 in 10.0 mi Calm Calm - N/A   Clear
4:53 PM 66.0 °F 37.9 °F 36% 30.33 in 10.0 mi Calm Calm - N/A   Clear
5:53 PM 66.0 °F 37.9 °F 36% 30.33 in 10.0 mi Calm Calm - N/A   Clear
6:53 PM 64.9 °F 39.0 °F 39% 30.33 in 10.0 mi Calm Calm - N/A   Clear
7:53 PM 55.0 °F 43.0 °F 64% 30.33 in 10.0 mi Calm Calm - N/A   Clear
8:53 PM 51.1 °F 42.1 °F 71% 30.35 in 10.0 mi Calm Calm - N/A   Clear
9:53 PM 50.0 °F 42.1 °F 74% 30.35 in 10.0 mi Calm Calm - N/A   Clear
10:53 PM 48.0 °F 42.1 °F 80% 30.36 in 10.0 mi East 3.5 mph - N/A   Clear
11:53 PM 46.0 °F 41.0 °F 83% 30.35 in 10.0 mi Calm Calm - N/A   Clear